Regional Weather Roundup
Issued by NWS

Home | Current Version | Previous Version | Graphics & Text | Print | Product List | Glossary On
Versions: 1 2 3 4 5 6 7 8 9 10 11 12 13 14 15 16 17 18 19 20 21 22 23 24 25 26 27 28 29 30 31 32 33 34 35 36 37 38 39 40 41 42 43 44 45 46 47 48 49 50
000
ASUS43 KDMX 060106
RWRIA

WEATHER ROUNDUP FOR IOWA
NATIONAL WEATHER SERVICE DES MOINES IA
700 PM CST MON DEC 05 2016

NOTE: "FAIR" INDICATES FEW OR NO CLOUDS BELOW 12,000 FEET WITH NO
SIGNIFICANT WEATHER AND/OR OBSTRUCTIONS TO VISIBILITY.

* - THESE STATIONS ARE NOT NWS STATIONS...THUS NOT UNDER NWS
QUALITY CONTROL.  THEY ALSO DO NOT REPORT WEATHER SUCH
AS PRECIPITATION OR FOG.

IAZ001>003-012>014-020>022-031>034-043>046-060200-
   NORTHWEST IOWA

CITY           SKY/WX    TMP DP  RH WIND       PRES   REMARKS
CARROLL *      CLOUDY    43  39  87 S10       29.70R
CHEROKEE *     CLOUDY    42  37  83 SW8       29.67R
DENISON *      CLOUDY    45  37  76 S13       29.68R
LE MARS *      CLOUDY    39  32  75 W14G24    29.72R WCI  31
ORANGE CITY *  PTCLDY    37  34  87 W18G28    29.69R WCI  27
SHELDON *      CLOUDY    37  34  87 W22       29.65R WCI  27
SIOUX CITY     CLOUDY    42  33  70 NW20G25   29.71R
SPENCER        MOCLDY    41  36  82 S20       29.65R
STORM LAKE *   CLOUDY    43  37  81 S10       29.67R
$$

IAZ055>058-069>071-079>083-090>094-060200-
   SOUTHWEST IOWA

CITY           SKY/WX    TMP DP  RH WIND       PRES   REMARKS
ATLANTIC *     CLOUDY    43  36  75 S8G15     29.71R
AUDUBON *      CLOUDY    43  37  81 S9        29.71R
CLARINDA *       N/A     39  34  81 CALM      29.74R
COUNCIL BLFS * CLOUDY    43  37  81 S5        29.71R
CRESTON *      CLEAR     39  34  81 S10       29.73R WCI  32
HARLAN  *      CLOUDY    43  37  81 SW9       29.75R
LAMONI         CLEAR     40  34  79 SE10      29.74R WCI  33
RED OAK *      CLOUDY    41  36  81 S5        29.72R
SHENANDOAH *   CLOUDY    41  36  81 CALM      29.73R
$$

IAZ047>049-059>061-072>074-084-060200-
   CENTRAL IOWA

CITY           SKY/WX    TMP DP  RH WIND       PRES   REMARKS
AMES           MOCLDY    40  36  86 SE13      29.73R WCI  32
ANKENY *       CLEAR     41 N/A N/A SE8       29.76R
BOONE *        PTCLDY    39  36  87 S13       29.72R WCI  32
CHARITON *       N/A     37  36  93 SE14G20   29.76R WCI  29
DES MOINES     PTCLDY    41  34  76 SE13      29.74S
GRINNELL*      CLOUDY    34  33  96 SE18G25   29.78F WCI  23
KNOXVILLE *    CLEAR     37  34  87 SE13      29.76R WCI  29
MARSHALLTOWN   CLOUDY    34  34 100 SE16G28   29.77R FOG     WCI  24
NEWTON *       CLOUDY    36  34  93 SE16      29.77R WCI  26
PELLA *        PTCLDY    36  34  92 SE15G21   29.79S WCI  27
PERRY *          N/A     42  39  90 SE12      29.72R
$$

IAZ004>006-015-016-023>025-035-036-060200-
   NORTH CENTRAL IOWA

CITY           SKY/WX    TMP DP  RH WIND       PRES   REMARKS
ALGONA *       CLOUDY    43  37  81 S23       29.66S
CLARION *      CLOUDY    37  37 100 S17       29.71R WCI  28
ESTHERVILLE    PTCLDY    42  36  79 S18       29.63R
FORT DODGE *   CLOUDY    43  34  70 S14G22    29.71R
MASON CITY     CLOUDY    35  33  92 S23G30    29.72R WCI  23
FOREST CITY *  CLOUDY    36  36 100 S16G23    29.70R WCI  26
WEBSTER CITY * CLOUDY    41  39  93 S15G23    29.69R
IOWA FALLS *     N/A     35  34  94 SE14      29.74S WCI  26
$$

IAZ007>011-017>019-026>030-037>042-050>054-066-060200-
   NORTHEAST IOWA

CITY           SKY/WX    TMP DP  RH WIND       PRES   REMARKS
CEDAR RAPIDS   CLOUDY    32  32 100 SE13G23   29.84S FOG     WCI  22
CHARLES CITY * CLOUDY    34  34 100 S15G22    29.76R WCI  24
CLINTON *      CLOUDY    32  31  96 SE17      29.92F WCI  21
DECORAH *      CLOUDY    32  30  93 SE13G21   29.78R WCI  22
DUBUQUE        LGT SNOW  32  31  96 S20       29.87S FOG     WCI  20
MONTICELLO *   CLOUDY    34  32  93 SE15G25   29.87R FOG     WCI  24
OELWEIN *      CLOUDY    32  32 100 SE22G29   29.80R FOG     WCI  19
WATERLOO       CLOUDY    33  31  92 SE15G25   29.78R WCI  23
$$

IAZ064-065-067-068-078-060200-
   EAST CENTRAL IOWA

CITY           SKY/WX    TMP DP  RH WIND       PRES   REMARKS
DAVENPORT      CLOUDY    33  31  92 SE16      29.90F WCI  23
IOWA CITY      CLOUDY    34  32  92 SE15      29.87F WCI  24
MUSCATINE *    CLOUDY    36  32  87 SE8       29.89F WCI  29
QUAD CITIES    CLOUDY    35  31  85 SE12      29.90F WCI  27
$$

IAZ062-063-075>077-085>089-095>099-060200-
   SOUTHEAST IOWA

CITY           SKY/WX    TMP DP  RH WIND       PRES   REMARKS
BURLINGTON     CLOUDY    36  34  92 E9        29.86F WCI  29
FAIRFIELD *    CLOUDY    37  34  87 SE12      29.83F WCI  30
FORT MADISON * CLOUDY    36  36 100 E6        29.86F WCI  31
KEOKUK *       CLEAR     34  34 100 E9        29.85F FOG     WCI  26
OSKALOOSA *    CLOUDY    35  34  96 SE22      29.82S WCI  23
CENTERVILLE *  CLOUDY    36  36 100 E13       29.80F WCI  27
OTTUMWA        CLOUDY    36  32  85 SE17      29.80F WCI  26
WASHINGTON *   CLOUDY    34  34 100 SE13      29.86F FOG     WCI  25
$$

ABBREVIATIONS USED IN REMARKS
   TC - TEMPERATURES IN CELSIUS
  WCI - WIND CHILL INDEX
   HX - HEAT INDEX
  VSB - VISIBILITY
$$




USA.gov is the U.S. government's official web portal to all federal, state and local government web resources and services.